| time (UTC) | temp F | wind direction | speed MPH | gust MPH | rain 1hr in | rain 24hr in | rain mn in | humidity % | barometer mb |
| 20260510171358 | 72 | 196 | 1.0 | 3.0 | 0.00 | 0.00 | 0.00 | 61 | 1013.2 |
| 20260510170857 | 72 | 209 | 2.0 | 5.0 | 0.00 | 0.00 | 0.00 | 61 | 1013.3 |
| 20260510170358 | 72 | 194 | 2.0 | 5.0 | 0.00 | 0.00 | 0.00 | 60 | 1013.3 |
| 20260510165857 | 72 | 149 | 2.0 | 4.0 | 0.00 | 0.00 | 0.00 | 60 | 1013.3 |
| 20260510165359 | 73 | 140 | 2.0 | 7.0 | 0.00 | 0.00 | 0.00 | 60 | 1013.3 |
| 20260510164857 | 73 | 139 | 3.0 | 7.0 | 0.00 | 0.00 | 0.00 | 60 | 1013.3 |
| 20260510164358 | 73 | 137 | 3.0 | 7.0 | 0.00 | 0.00 | 0.00 | 61 | 1013.3 |
| 20260510164117 | 73 | 144 | 3.0 | 8.0 | 0.00 | 0.00 | 0.00 | 61 | 1013.2 |
| 20260510163358 | 72 | 221 | 2.0 | 8.0 | 0.00 | 0.00 | 0.00 | 61 | 1013.2 |
| 20260510162851 | 72 | 219 | 2.0 | 5.0 | 0.00 | 0.00 | 0.00 | 63 | 1013.3 |
| 20260510162345 | 72 | 205 | 2.0 | 6.0 | 0.00 | 0.00 | 0.00 | 63 | 1013.3 |
| 20260510161838 | 71 | 223 | 3.0 | 7.0 | 0.00 | 0.00 | 0.00 | 62 | 1013.3 |
| 20260510161332 | 72 | 202 | 4.0 | 7.0 | 0.00 | 0.00 | 0.00 | 61 | 1013.3 |
| 20260510160827 | 72 | 222 | 4.0 | 7.0 | 0.00 | 0.00 | 0.00 | 61 | 1013.4 |
| 20260510160321 | 72 | 129 | 3.0 | 6.0 | 0.00 | 0.00 | 0.00 | 62 | 1013.4 |
| 20260510155814 | 72 | 191 | 4.0 | 9.0 | 0.00 | 0.00 | 0.00 | 62 | 1013.3 |
| 20260510155308 | 72 | 176 | 4.0 | 9.0 | 0.00 | 0.00 | 0.00 | 62 | 1013.3 |
| 20260510154802 | 73 | 219 | 5.0 | 9.0 | 0.00 | 0.00 | 0.00 | 62 | 1013.3 |
| 20260510154257 | 73 | 212 | 5.0 | 9.0 | 0.00 | 0.00 | 0.00 | 61 | 1013.3 |
| 20260510153751 | 74 | 233 | 4.0 | 9.0 | 0.00 | 0.00 | 0.00 | 60 | 1013.3 |
| 20260510153245 | 74 | 256 | 3.0 | 7.0 | 0.00 | 0.00 | 0.00 | 59 | 1013.2 |
| 20260510152740 | 73 | 203 | 4.0 | 8.0 | 0.00 | 0.00 | 0.00 | 61 | 1013.3 |
| 20260510152233 | 73 | 225 | 3.0 | 8.0 | 0.00 | 0.00 | 0.00 | 62 | 1013.4 |
| 20260510151733 | 72 | 134 | 3.0 | 6.0 | 0.00 | 0.00 | 0.00 | 65 | 1013.4 |
| 20260510151231 | 72 | 139 | 3.0 | 6.0 | 0.00 | 0.00 | 0.00 | 65 | 1013.4 |
| 20260510150731 | 72 | 157 | 3.0 | 8.0 | 0.00 | 0.00 | 0.00 | 65 | 1013.3 |
| 20260510150721 | 72 | 189 | 3.0 | 8.0 | 0.00 | 0.00 | 0.00 | 64 | 1013.3 |
| 20260510145731 | 73 | 123 | 3.0 | 8.0 | 0.00 | 0.00 | 0.00 | 64 | 1013.2 |
| 20260510145227 | 73 | 148 | 4.0 | 10.0 | 0.00 | 0.00 | 0.00 | 63 | 1013.4 |
| 20260510144729 | 73 | 169 | 3.0 | 10.0 | 0.00 | 0.00 | 0.00 | 63 | 1013.5 |
| 20260510144227 | 74 | 158 | 3.0 | 8.0 | 0.00 | 0.00 | 0.00 | 64 | 1013.4 |
| 20260510143727 | 74 | 205 | 3.0 | 7.0 | 0.00 | 0.00 | 0.00 | 65 | 1013.4 |
| 20260510143225 | 74 | 140 | 3.0 | 7.0 | 0.00 | 0.00 | 0.00 | 65 | 1013.4 |
| 20260510142725 | 73 | 241 | 3.0 | 7.0 | 0.00 | 0.00 | 0.00 | 66 | 1013.4 |
| 20260510142226 | 73 | 191 | 3.0 | 8.0 | 0.00 | 0.00 | 0.00 | 66 | 1013.3 |
| 20260510141725 | 73 | 115 | 4.0 | 10.0 | 0.00 | 0.00 | 0.00 | 67 | 1013.2 |
| 20260510141705 | 73 | 197 | 4.0 | 10.0 | 0.00 | 0.00 | 0.00 | 67 | 1013.3 |
| 20260510141232 | 73 | 197 | 4.0 | 10.0 | 0.00 | 0.00 | 0.00 | 67 | 1013.3 |
| 20260510140725 | 72 | 203 | 4.0 | 9.0 | 0.00 | 0.00 | 0.00 | 68 | 1013.3 |
| 20260510140224 | 72 | 214 | 5.0 | 14.0 | 0.00 | 0.00 | 0.00 | 69 | 1013.3 |
| 20260510135725 | 72 | 259 | 6.0 | 14.0 | 0.00 | 0.00 | 0.00 | 69 | 1013.4 |
| 20260510135447 | 72 | 189 | 6.0 | 13.0 | 0.00 | 0.00 | 0.00 | 68 | 1013.5 |
| 20260510134714 | 73 | 231 | 6.0 | 13.0 | 0.00 | 0.00 | 0.00 | 67 | 1013.5 |
| 20260510134206 | 73 | 172 | 5.0 | 11.0 | 0.00 | 0.00 | 0.00 | 65 | 1013.5 |
| 20260510133701 | 75 | 236 | 4.0 | 11.0 | 0.00 | 0.00 | 0.00 | 64 | 1013.5 |
| 20260510133159 | 76 | 209 | 3.0 | 8.0 | 0.00 | 0.00 | 0.00 | 61 | 1013.5 |
| 20260510132658 | 76 | 261 | 3.0 | 7.0 | 0.00 | 0.00 | 0.00 | 60 | 1013.5 |
| 20260510132200 | 76 | 199 | 3.0 | 6.0 | 0.00 | 0.00 | 0.00 | 57 | 1013.5 |
| 20260510131658 | 76 | 228 | 3.0 | 4.0 | 0.00 | 0.00 | 0.00 | 57 | 1013.5 |
| 20260510131158 | 76 | 214 | 2.0 | 4.0 | 0.00 | 0.00 | 0.00 | 57 | 1013.5 |
| 20260510130659 | 76 | 212 | 2.0 | 4.0 | 0.00 | 0.00 | 0.00 | 57 | 1013.7 |
| 20260510130209 | 76 | 214 | 2.0 | 6.0 | 0.00 | 0.00 | 0.00 | 57 | 1013.7 |
| 20260510125924 | 76 | 186 | 3.0 | 6.0 | 0.00 | 0.00 | 0.00 | 57 | 1013.8 |
| 20260510125200 | 76 | 198 | 3.0 | 6.0 | 0.00 | 0.00 | 0.00 | 55 | 1013.8 |
| 20260510124659 | 76 | 212 | 2.0 | 4.0 | 0.00 | 0.00 | 0.00 | 54 | 1013.9 |
| 20260510124159 | 76 | 211 | 3.0 | 6.0 | 0.00 | 0.00 | 0.00 | 54 | 1014.0 |
| 20260510124131 | 77 | 256 | 2.0 | 6.0 | 0.00 | 0.00 | 0.00 | 54 | 1014.2 |
| 20260510123914 | 77 | 256 | 2.0 | 6.0 | 0.00 | 0.00 | 0.00 | 54 | 1014.2 |
| 20260510123753 | 76 | 214 | 3.0 | 6.0 | 0.00 | 0.00 | 0.00 | 54 | 1014.1 |
| 20260510123426 | 77 | 256 | 2.0 | 6.0 | 0.00 | 0.00 | 0.00 | 54 | 1014.2 |
| 20260510123201 | 77 | 256 | 2.0 | 6.0 | 0.00 | 0.00 | 0.00 | 54 | 1014.2 |
| 20260510123149 | 77 | 212 | 3.0 | 6.0 | 0.00 | 0.00 | 0.00 | 56 | 1014.3 |
| 20260510122154 | 76 | 204 | 3.0 | 6.0 | 0.00 | 0.00 | 0.00 | 55 | 1014.4 |
| 20260510121654 | 76 | 212 | 3.0 | 6.0 | 0.00 | 0.00 | 0.00 | 56 | 1014.6 |
| 20260510121154 | 76 | 204 | 3.0 | 6.0 | 0.00 | 0.00 | 0.00 | 56 | 1014.5 |
| 20260510120655 | 76 | 212 | 4.0 | 7.0 | 0.00 | 0.00 | 0.00 | 56 | 1014.6 |
| 20260510120419 | 76 | 223 | 4.0 | 7.0 | 0.00 | 0.00 | 0.00 | 55 | 1014.7 |
| 20260510115655 | 77 | 221 | 3.0 | 7.0 | 0.00 | 0.00 | 0.00 | 53 | 1014.8 |
| 20260510115155 | 77 | 207 | 3.0 | 7.0 | 0.00 | 0.00 | 0.00 | 54 | 1014.9 |
| 20260510114655 | 77 | 258 | 4.0 | 9.0 | 0.00 | 0.00 | 0.00 | 56 | 1014.9 |
| 20260510114413 | 76 | 207 | 4.0 | 9.0 | 0.00 | 0.00 | 0.00 | 54 | 1014.9 |
| 20260510113654 | 78 | 199 | 3.0 | 7.0 | 0.00 | 0.00 | 0.00 | 55 | 1014.9 |
| 20260510113154 | 78 | 202 | 2.0 | 7.0 | 0.00 | 0.00 | 0.00 | 54 | 1014.9 |
| 20260510112655 | 78 | 205 | 2.0 | 5.0 | 0.00 | 0.00 | 0.00 | 53 | 1014.9 |
| 20260510112154 | 78 | 246 | 2.0 | 5.0 | 0.00 | 0.00 | 0.00 | 54 | 1014.9 |
| 20260510111920 | 78 | 205 | 2.0 | 5.0 | 0.00 | 0.00 | 0.00 | 54 | 1014.9 |
| 20260510111154 | 78 | 183 | 2.0 | 5.0 | 0.00 | 0.00 | 0.00 | 55 | 1014.9 |
| 20260510110914 | 77 | 240 | 1.0 | 4.0 | 0.00 | 0.00 | 0.00 | 56 | 1015.0 |
| 20260510110411 | 76 | 224 | 2.0 | 5.0 | 0.00 | 0.00 | 0.00 | 58 | 1015.1 |
| 20260510105645 | 75 | 237 | 3.0 | 5.0 | 0.00 | 0.00 | 0.00 | 59 | 1015.1 |
| 20260510105140 | 75 | 222 | 3.0 | 6.0 | 0.00 | 0.00 | 0.00 | 60 | 1015.1 |
| 20260510104636 | 75 | 241 | 4.0 | 7.0 | 0.00 | 0.00 | 0.00 | 61 | 1015.2 |
| 20260510104128 | 74 | 276 | 6.0 | 8.0 | 0.00 | 0.00 | 0.00 | 60 | 1015.2 |
| 20260510103622 | 74 | 263 | 5.0 | 8.0 | 0.00 | 0.00 | 0.00 | 57 | 1015.3 |
| 20260510103115 | 75 | 245 | 3.0 | 8.0 | 0.00 | 0.00 | 0.00 | 59 | 1015.3 |
| 20260510102609 | 74 | 288 | 4.0 | 8.0 | 0.00 | 0.00 | 0.00 | 60 | 1015.4 |
| 20260510102329 | 74 | 259 | 6.0 | 11.0 | 0.00 | 0.00 | 0.00 | 62 | 1015.5 |
| 20260510101605 | 74 | 251 | 6.0 | 11.0 | 0.00 | 0.00 | 0.00 | 60 | 1015.5 |
| 20260510101102 | 74 | 268 | 5.0 | 9.0 | 0.00 | 0.00 | 0.00 | 58 | 1015.5 |
| 20260510100826 | 74 | 318 | 5.0 | 7.0 | 0.00 | 0.00 | 0.00 | 59 | 1015.4 |
| 20260510095602 | 74 | 209 | 4.0 | 6.0 | 0.00 | 0.00 | 0.00 | 60 | 1015.4 |
| 20260510095100 | 74 | 250 | 4.0 | 7.0 | 0.00 | 0.00 | 0.00 | 58 | 1015.3 |
| 20260510094601 | 74 | 303 | 4.0 | 7.0 | 0.00 | 0.00 | 0.00 | 61 | 1015.3 |
| 20260510094101 | 74 | 259 | 4.0 | 7.0 | 0.00 | 0.00 | 0.00 | 59 | 1015.5 |
| 20260510093601 | 74 | 268 | 4.0 | 7.0 | 0.00 | 0.00 | 0.00 | 59 | 1015.5 |
| 20260510093100 | 73 | 269 | 4.0 | 7.0 | 0.00 | 0.00 | 0.00 | 62 | 1015.6 |
| 20260510092559 | 73 | 255 | 3.0 | 6.0 | 0.00 | 0.00 | 0.00 | 64 | 1015.6 |
| 20260510092057 | 73 | 250 | 3.0 | 6.0 | 0.00 | 0.00 | 0.00 | 64 | 1015.7 |
| 20260510091556 | 73 | 236 | 4.0 | 7.0 | 0.00 | 0.00 | 0.00 | 64 | 1015.7 |
| 20260510091057 | 72 | 259 | 4.0 | 7.0 | 0.00 | 0.00 | 0.00 | 62 | 1015.8 |
| 20260510090556 | 73 | 262 | 4.0 | 7.0 | 0.00 | 0.00 | 0.00 | 63 | 1015.8 |
| 20260510090057 | 72 | 269 | 4.0 | 7.0 | 0.00 | 0.00 | 0.00 | 62 | 1015.8 |
| 20260510085556 | 72 | 307 | 4.0 | 7.0 | 0.00 | 0.00 | 0.00 | 63 | 1015.8 |
| 20260510085050 | 72 | 259 | 4.0 | 7.0 | 0.00 | 0.00 | 0.00 | 62 | 1015.8 |
| 20260510084543 | 72 | 267 | 4.0 | 7.0 | 0.00 | 0.00 | 0.00 | 62 | 1015.9 |
| 20260510084037 | 72 | 299 | 3.0 | 7.0 | 0.00 | 0.00 | 0.00 | 62 | 1015.9 |
| 20260510083532 | 71 | 265 | 4.0 | 7.0 | 0.00 | 0.00 | 0.00 | 62 | 1015.9 |
| 20260510083026 | 71 | 244 | 4.0 | 7.0 | 0.00 | 0.00 | 0.00 | 63 | 1015.9 |
| 20260510082742 | 71 | 255 | 4.0 | 8.0 | 0.00 | 0.00 | 0.00 | 64 | 1015.8 |
| 20260510082013 | 70 | 236 | 4.0 | 8.0 | 0.00 | 0.00 | 0.00 | 65 | 1015.8 |
| 20260510081508 | 70 | 252 | 4.0 | 7.0 | 0.00 | 0.00 | 0.00 | 66 | 1015.7 |
| 20260510081227 | 70 | 252 | 4.0 | 7.0 | 0.00 | 0.00 | 0.00 | 67 | 1015.8 |
| 20260510080456 | 70 | 236 | 3.0 | 7.0 | 0.00 | 0.00 | 0.00 | 68 | 1015.8 |
| 20260510075951 | 70 | 296 | 3.0 | 7.0 | 0.00 | 0.00 | 0.00 | 67 | 1015.9 |
| 20260510075443 | 70 | 264 | 3.0 | 7.0 | 0.00 | 0.00 | 0.00 | 68 | 1016.0 |
| 20260510074937 | 70 | 248 | 4.0 | 6.0 | 0.00 | 0.00 | 0.00 | 69 | 1016.1 |
| 20260510074431 | 69 | 255 | 4.0 | 7.0 | 0.00 | 0.00 | 0.00 | 69 | 1016.2 |
| 20260510073926 | 69 | 238 | 3.0 | 7.0 | 0.00 | 0.00 | 0.00 | 68 | 1016.2 |
| 20260510073421 | 69 | 281 | 4.0 | 7.0 | 0.00 | 0.00 | 0.00 | 71 | 1016.2 |
| 20260510072914 | 69 | 303 | 4.0 | 8.0 | 0.00 | 0.00 | 0.00 | 71 | 1016.2 |
| 20260510072408 | 68 | 247 | 4.0 | 8.0 | 0.00 | 0.00 | 0.00 | 73 | 1016.2 |
| 20260510071901 | 68 | 279 | 4.0 | 8.0 | 0.00 | 0.00 | 0.00 | 73 | 1016.2 |
| 20260510071356 | 68 | 257 | 4.0 | 7.0 | 0.00 | 0.00 | 0.00 | 73 | 1016.3 |
| 20260510070849 | 67 | 281 | 4.0 | 7.0 | 0.00 | 0.00 | 0.00 | 74 | 1016.2 |
| 20260510070614 | 67 | 288 | 4.0 | 7.0 | 0.00 | 0.00 | 0.00 | 73 | 1016.1 |
| 20260510070058 | 67 | 299 | 5.0 | 7.0 | 0.00 | 0.00 | 0.00 | 74 | 1016.1 |
| 20260510065337 | 67 | 281 | 4.0 | 8.0 | 0.00 | 0.00 | 0.00 | 75 | 1016.1 |
| 20260510064821 | 67 | 289 | 3.0 | 8.0 | 0.00 | 0.00 | 0.00 | 76 | 1016.0 |
| 20260510064547 | 66 | 276 | 4.0 | 8.0 | 0.00 | 0.00 | 0.00 | 78 | 1015.9 |
| 20260510063809 | 66 | 277 | 3.0 | 6.0 | 0.00 | 0.00 | 0.00 | 78 | 1016.0 |
| 20260510063304 | 66 | 240 | 3.0 | 6.0 | 0.00 | 0.00 | 0.00 | 78 | 1016.0 |
| 20260510062758 | 65 | 298 | 4.0 | 6.0 | 0.00 | 0.00 | 0.00 | 80 | 1016.1 |
| 20260510062514 | 65 | 272 | 4.0 | 8.0 | 0.00 | 0.00 | 0.00 | 80 | 1016.1 |
| 20260510061746 | 65 | 285 | 4.0 | 8.0 | 0.00 | 0.00 | 0.00 | 80 | 1016.0 |
| 20260510061240 | 65 | 285 | 4.0 | 8.0 | 0.00 | 0.00 | 0.00 | 80 | 1016.1 |
| 20260510060734 | 64 | 268 | 4.0 | 8.0 | 0.00 | 0.00 | 0.00 | 81 | 1016.0 |
| 20260510060228 | 64 | 281 | 4.0 | 8.0 | 0.00 | 0.00 | 0.00 | 82 | 1015.9 |
| 20260510055721 | 64 | 275 | 4.0 | 8.0 | 0.00 | 0.00 | 0.00 | 81 | 1016.0 |
| 20260510055216 | 63 | 267 | 4.0 | 8.0 | 0.00 | 0.00 | 0.00 | 82 | 1016.0 |
| 20260510054711 | 63 | 264 | 3.0 | 7.0 | 0.00 | 0.00 | 0.00 | 84 | 1016.1 |
| 20260510054210 | 63 | 294 | 2.0 | 5.0 | 0.00 | 0.00 | 0.00 | 85 | 1016.1 |
| 20260510053710 | 63 | 274 | 2.0 | 5.0 | 0.00 | 0.00 | 0.00 | 87 | 1016.0 |
| 20260510053210 | 62 | 265 | 3.0 | 6.0 | 0.00 | 0.00 | 0.00 | 86 | 1015.9 |
| 20260510052710 | 62 | 264 | 2.0 | 6.0 | 0.00 | 0.00 | 0.00 | 87 | 1015.9 |
| 20260510052210 | 62 | 274 | 2.0 | 3.0 | 0.00 | 0.00 | 0.00 | 88 | 1015.8 |
| 20260510051708 | 62 | 274 | 2.0 | 4.0 | 0.00 | 0.00 | 0.00 | 88 | 1015.7 |
| 20260510051206 | 62 | 269 | 2.0 | 4.0 | 0.00 | 0.01 | 0.00 | 89 | 1015.7 |
| 20260510050705 | 62 | 269 | 2.0 | 4.0 | 0.00 | 0.01 | 0.00 | 89 | 1015.7 |
| 20260510050206 | 62 | 276 | 2.0 | 4.0 | 0.00 | 0.01 | 0.00 | 89 | 1015.8 |
| 20260510045929 | 62 | 306 | 2.0 | 4.0 | 0.00 | 0.01 | 0.00 | 89 | 1015.8 |
| 20260510045202 | 62 | 306 | 2.0 | 4.0 | 0.00 | 0.01 | 0.00 | 89 | 1015.7 |
| 20260510044702 | 62 | 299 | 1.0 | 4.0 | 0.00 | 0.01 | 0.00 | 91 | 1015.7 |
| 20260510044202 | 61 | 309 | 2.0 | 5.0 | 0.00 | 0.01 | 0.00 | 91 | 1015.8 |
| 20260510043659 | 61 | 321 | 3.0 | 5.0 | 0.00 | 0.01 | 0.00 | 91 | 1015.8 |
| 20260510043200 | 62 | 311 | 3.0 | 5.0 | 0.00 | 0.01 | 0.00 | 90 | 1015.8 |
| 20260510042917 | 62 | 316 | 2.0 | 5.0 | 0.00 | 0.01 | 0.00 | 90 | 1015.8 |
| 20260510042159 | 62 | 270 | 3.0 | 6.0 | 0.00 | 0.01 | 0.00 | 91 | 1015.8 |
| 20260510041700 | 62 | 274 | 3.0 | 6.0 | 0.00 | 0.01 | 0.00 | 90 | 1015.8 |
| 20260510041200 | 62 | 274 | 2.0 | 7.0 | 0.00 | 0.01 | 0.00 | 90 | 1015.8 |
| 20260510040658 | 62 | 275 | 2.0 | 7.0 | 0.00 | 0.01 | 0.00 | 90 | 1015.8 |
| 20260510040421 | 62 | 307 | 3.0 | 5.0 | 0.00 | 0.01 | 0.00 | 91 | 1015.7 |
| 20260510035656 | 62 | 300 | 3.0 | 5.0 | 0.00 | 0.01 | 0.00 | 91 | 1015.6 |
| 20260510035421 | 62 | 249 | 2.0 | 4.0 | 0.00 | 0.01 | 0.00 | 91 | 1015.5 |
| 20260510034655 | 62 | 269 | 2.0 | 4.0 | 0.00 | 0.01 | 0.00 | 91 | 1015.4 |
| 20260510034156 | 62 | 260 | 2.0 | 4.0 | 0.00 | 0.01 | 0.00 | 91 | 1015.3 |
| 20260510033656 | 62 | 250 | 2.0 | 4.0 | 0.00 | 0.01 | 0.00 | 91 | 1015.4 |
| 20260510033156 | 62 | 255 | 3.0 | 4.0 | 0.00 | 0.01 | 0.00 | 90 | 1015.2 |
| 20260510032654 | 62 | 255 | 3.0 | 5.0 | 0.00 | 0.01 | 0.00 | 90 | 1015.2 |
| 20260510032154 | 62 | 243 | 2.0 | 5.0 | 0.00 | 0.01 | 0.00 | 89 | 1015.2 |
| 20260510031654 | 62 | 256 | 2.0 | 3.0 | 0.00 | 0.01 | 0.00 | 89 | 1015.3 |
| 20260510031154 | 62 | 256 | 1.0 | 3.0 | 0.00 | 0.01 | 0.00 | 89 | 1015.2 |
| 20260510030654 | 62 | 256 | 1.0 | 2.0 | 0.00 | 0.01 | 0.00 | 90 | 1015.2 |
| 20260510030153 | 62 | 256 | 1.0 | 3.0 | 0.00 | 0.01 | 0.00 | 90 | 1015.2 |
| 20260510025651 | 62 | 256 | 1.0 | 3.0 | 0.00 | 0.01 | 0.00 | 91 | 1015.2 |
| 20260510025152 | 61 | 256 | 0.0 | 2.0 | 0.00 | 0.01 | 0.00 | 92 | 1015.2 |
| 20260510024652 | 61 | 256 | 0.0 | 1.0 | 0.00 | 0.01 | 0.00 | 92 | 1015.1 |
| 20260510024149 | 61 | 256 | 0.0 | 1.0 | 0.00 | 0.01 | 0.00 | 92 | 1015.1 |
| 20260510023649 | 61 | 256 | 0.0 | 1.0 | 0.00 | 0.01 | 0.00 | 93 | 1015.0 |
| 20260510023149 | 61 | 256 | 0.0 | 1.0 | 0.00 | 0.01 | 0.00 | 92 | 1015.0 |
| 20260510022650 | 62 | 256 | 0.0 | 1.0 | 0.00 | 0.01 | 0.00 | 92 | 1015.1 |
| 20260510022150 | 62 | 256 | 0.0 | 1.0 | 0.00 | 0.01 | 0.00 | 93 | 1015.1 |
| 20260510021650 | 62 | 256 | 0.0 | 1.0 | 0.00 | 0.01 | 0.00 | 93 | 1015.1 |
| 20260510021149 | 62 | 256 | 0.0 | 2.0 | 0.00 | 0.01 | 0.00 | 93 | 1015.0 |
| 20260510020650 | 62 | 256 | 1.0 | 3.0 | 0.00 | 0.01 | 0.00 | 92 | 1015.0 |
| 20260510020412 | 62 | 256 | 2.0 | 4.0 | 0.00 | 0.01 | 0.00 | 92 | 1015.1 |
| 20260510015903 | 62 | 256 | 3.0 | 5.0 | 0.00 | 0.01 | 0.00 | 92 | 1015.2 |
| 20260510015146 | 62 | 260 | 3.0 | 5.0 | 0.00 | 0.01 | 0.00 | 92 | 1015.1 |
| 20260510014908 | 62 | 258 | 2.0 | 5.0 | 0.00 | 0.01 | 0.00 | 91 | 1015.1 |
| 20260510014145 | 62 | 117 | 1.0 | 2.0 | 0.00 | 0.01 | 0.00 | 91 | 1015.1 |
| 20260510013908 | 62 | 117 | 0.0 | 2.0 | 0.00 | 0.01 | 0.00 | 91 | 1015.0 |
| 20260510013411 | 61 | 117 | 0.0 | 1.0 | 0.00 | 0.01 | 0.00 | 91 | 1015.1 |
| 20260510012646 | 61 | 117 | 0.0 | 0.0 | 0.00 | 0.01 | 0.00 | 90 | 1015.1 |
| 20260510012145 | 62 | 117 | 0.0 | 1.0 | 0.00 | 0.01 | 0.00 | 90 | 1015.1 |
| 20260510011638 | 62 | 117 | 0.0 | 1.0 | 0.00 | 0.01 | 0.00 | 90 | 1015.2 |
| 20260510011133 | 62 | 117 | 0.0 | 1.0 | 0.00 | 0.01 | 0.00 | 91 | 1015.2 |
| 20260510010627 | 61 | 117 | 0.0 | 0.0 | 0.00 | 0.01 | 0.00 | 91 | 1015.3 |
| 20260510010121 | 61 | 117 | 0.0 | 0.0 | 0.00 | 0.01 | 0.00 | 91 | 1015.3 |
| 20260510005621 | 61 | 117 | 0.0 | 0.0 | 0.00 | 0.01 | 0.00 | 90 | 1015.3 |
| 20260510005331 | 61 | 117 | 0.0 | 0.0 | 0.00 | 0.01 | 0.00 | 90 | 1015.3 |
| 20260510004603 | 61 | 117 | 0.0 | 1.0 | 0.00 | 0.01 | 0.00 | 90 | 1015.4 |
| 20260510004057 | 61 | 117 | 0.0 | 1.0 | 0.00 | 0.01 | 0.00 | 90 | 1015.4 |
| 20260510003550 | 61 | 117 | 0.0 | 1.0 | 0.00 | 0.01 | 0.00 | 90 | 1015.4 |
| 20260510003045 | 61 | 117 | 0.0 | 1.0 | 0.00 | 0.01 | 0.00 | 90 | 1015.4 |
| 20260510002539 | 61 | 117 | 0.0 | 1.0 | 0.00 | 0.01 | 0.00 | 90 | 1015.4 |
| 20260510002033 | 61 | 117 | 0.0 | 1.0 | 0.00 | 0.01 | 0.00 | 89 | 1015.4 |
| 20260510001527 | 61 | 117 | 0.0 | 1.0 | 0.00 | 0.01 | 0.00 | 90 | 1015.3 |
| 20260510001021 | 62 | 117 | 0.0 | 1.0 | 0.00 | 0.01 | 0.00 | 90 | 1015.4 |
| 20260510000738 | 62 | 117 | 0.0 | 1.0 | 0.00 | 0.01 | 0.00 | 90 | 1015.3 |
| 20260510000009 | 62 | 117 | 0.0 | 1.0 | 0.00 | 0.01 | 0.00 | 90 | 1015.4 |
| 20260509235726 | 62 | 117 | 0.0 | 1.0 | 0.00 | 0.01 | 0.00 | 90 | 1015.3 |
| 20260509234957 | 62 | 117 | 0.0 | 1.0 | 0.00 | 0.01 | 0.00 | 90 | 1015.3 |
| 20260509234451 | 62 | 117 | 0.0 | 1.0 | 0.00 | 0.01 | 0.00 | 90 | 1015.3 |
| 20260509233945 | 62 | 117 | 0.0 | 1.0 | 0.00 | 0.01 | 0.00 | 90 | 1015.4 |
| 20260509233439 | 62 | 117 | 0.0 | 1.0 | 0.00 | 0.01 | 0.00 | 90 | 1015.4 |
| 20260509232933 | 62 | 117 | 0.0 | 1.0 | 0.00 | 0.01 | 0.00 | 90 | 1015.4 |
| 20260509232427 | 62 | 117 | 0.0 | 1.0 | 0.00 | 0.01 | 0.00 | 90 | 1015.5 |
| 20260509231921 | 63 | 117 | 0.0 | 1.0 | 0.00 | 0.01 | 0.00 | 90 | 1015.6 |
| 20260509231415 | 63 | 117 | 0.0 | 1.0 | 0.00 | 0.01 | 0.00 | 90 | 1015.6 |
| 20260509230909 | 63 | 117 | 0.0 | 1.0 | 0.00 | 0.01 | 0.00 | 90 | 1015.7 |
| 20260509230403 | 63 | 117 | 0.0 | 1.0 | 0.00 | 0.01 | 0.00 | 90 | 1015.7 |
| 20260509225858 | 64 | 117 | 1.0 | 2.0 | 0.00 | 0.01 | 0.00 | 90 | 1015.7 |
| 20260509225351 | 64 | 117 | 1.0 | 2.0 | 0.00 | 0.01 | 0.00 | 90 | 1015.7 |
| 20260509224846 | 64 | 138 | 1.0 | 1.0 | 0.00 | 0.01 | 0.00 | 90 | 1015.7 |
| 20260509224339 | 64 | 137 | 0.0 | 1.0 | 0.00 | 0.01 | 0.00 | 90 | 1015.7 |
| 20260509223833 | 64 | 137 | 0.0 | 1.0 | 0.00 | 0.01 | 0.00 | 90 | 1015.7 |
| 20260509223326 | 64 | 137 | 0.0 | 1.0 | 0.00 | 0.01 | 0.00 | 90 | 1015.8 |
| 20260509222821 | 64 | 137 | 0.0 | 1.0 | 0.00 | 0.01 | 0.00 | 90 | 1015.8 |
| 20260509222321 | 64 | 137 | 0.0 | 1.0 | 0.00 | 0.01 | 0.00 | 90 | 1015.8 |
| 20260509221821 | 64 | 138 | 0.0 | 1.0 | 0.00 | 0.01 | 0.00 | 91 | 1015.7 |
| 20260509221321 | 63 | 138 | 0.0 | 1.0 | 0.00 | 0.01 | 0.00 | 90 | 1015.7 |
| 20260509220821 | 63 | 138 | 0.0 | 1.0 | 0.00 | 0.01 | 0.00 | 91 | 1015.7 |
| 20260509220544 | 63 | 138 | 1.0 | 1.0 | 0.00 | 0.01 | 0.00 | 91 | 1015.8 |
| 20260509215820 | 63 | 137 | 0.0 | 1.0 | 0.00 | 0.01 | 0.00 | 91 | 1015.7 |
| 20260509215319 | 63 | 137 | 0.0 | 1.0 | 0.00 | 0.01 | 0.00 | 91 | 1015.8 |
| 20260509214824 | 63 | 137 | 0.0 | 1.0 | 0.00 | 0.01 | 0.00 | 91 | 1015.9 |
| 20260509214540 | 63 | 137 | 0.0 | 1.0 | 0.00 | 0.01 | 0.00 | 90 | 1015.9 |
| 20260509213819 | 63 | 138 | 0.0 | 1.0 | 0.00 | 0.01 | 0.00 | 91 | 1015.9 |
| 20260509213317 | 63 | 137 | 0.0 | 1.0 | 0.00 | 0.01 | 0.00 | 91 | 1016.0 |
| 20260509212816 | 63 | 138 | 0.0 | 1.0 | 0.00 | 0.01 | 0.00 | 91 | 1015.9 |
| 20260509212313 | 63 | 137 | 0.0 | 1.0 | 0.00 | 0.01 | 0.00 | 91 | 1016.0 |
| 20260509211814 | 64 | 137 | 0.0 | 1.0 | 0.00 | 0.01 | 0.00 | 91 | 1015.9 |
| 20260509211536 | 64 | 137 | 0.0 | 1.0 | 0.00 | 0.01 | 0.00 | 91 | 1015.9 |
| 20260509210813 | 64 | 138 | 0.0 | 1.0 | 0.00 | 0.01 | 0.00 | 91 | 1015.9 |
| 20260509210313 | 64 | 137 | 0.0 | 2.0 | 0.00 | 0.01 | 0.00 | 91 | 1015.9 |
| 20260509205813 | 64 | 138 | 0.0 | 2.0 | 0.00 | 0.01 | 0.01 | 91 | 1015.9 |
| 20260509205307 | 64 | 138 | 0.0 | 2.0 | 0.00 | 0.01 | 0.01 | 91 | 1015.8 |
| 20260509204802 | 64 | 149 | 0.0 | 2.0 | 0.00 | 0.01 | 0.01 | 91 | 1015.7 |
| 20260509204254 | 64 | 207 | 0.0 | 2.0 | 0.00 | 0.01 | 0.01 | 91 | 1015.6 |
| 20260509203749 | 64 | 207 | 1.0 | 3.0 | 0.00 | 0.01 | 0.01 | 91 | 1015.7 |
| 20260509203243 | 64 | 259 | 1.0 | 3.0 | 0.00 | 0.01 | 0.01 | 91 | 1015.7 |
| 20260509202737 | 65 | 208 | 0.0 | 2.0 | 0.00 | 0.01 | 0.01 | 91 | 1015.6 |
| 20260509202231 | 65 | 208 | 1.0 | 3.0 | 0.00 | 0.01 | 0.01 | 91 | 1015.6 |
| 20260509201725 | 65 | 208 | 1.0 | 3.0 | 0.00 | 0.01 | 0.01 | 90 | 1015.6 |
| 20260509201218 | 65 | 205 | 1.0 | 4.0 | 0.00 | 0.01 | 0.01 | 90 | 1015.6 |
| 20260509200712 | 65 | 207 | 1.0 | 4.0 | 0.00 | 0.01 | 0.01 | 90 | 1015.6 |
| 20260509200207 | 64 | 224 | 0.0 | 1.0 | 0.00 | 0.01 | 0.01 | 90 | 1015.5 |
| 20260509195700 | 64 | 224 | 0.0 | 0.0 | 0.00 | 0.01 | 0.01 | 89 | 1015.4 |
| 20260509195155 | 65 | 224 | 0.0 | 0.0 | 0.00 | 0.01 | 0.01 | 89 | 1015.4 |
| 20260509194649 | 65 | 224 | 0.0 | 0.0 | 0.00 | 0.01 | 0.01 | 88 | 1015.3 |
| 20260509194413 | 65 | 224 | 0.0 | 0.0 | 0.00 | 0.01 | 0.01 | 88 | 1015.4 |
| 20260509193637 | 65 | 224 | 0.0 | 1.0 | 0.00 | 0.01 | 0.01 | 88 | 1015.4 |
| 20260509193131 | 65 | 224 | 0.0 | 1.0 | 0.00 | 0.01 | 0.01 | 88 | 1015.5 |
| 20260509192625 | 65 | 224 | 0.0 | 1.0 | 0.00 | 0.01 | 0.01 | 88 | 1015.4 |
| 20260509192119 | 65 | 224 | 0.0 | 1.0 | 0.00 | 0.01 | 0.01 | 88 | 1015.4 |
| 20260509191613 | 65 | 224 | 0.0 | 1.0 | 0.00 | 0.01 | 0.01 | 88 | 1015.3 |
| 20260509191107 | 65 | 224 | 0.0 | 1.0 | 0.00 | 0.01 | 0.01 | 88 | 1015.4 |
| 20260509190601 | 65 | 224 | 0.0 | 1.0 | 0.00 | 0.01 | 0.01 | 89 | 1015.3 |
| 20260509190322 | 65 | 224 | 0.0 | 1.0 | 0.00 | 0.01 | 0.01 | 88 | 1015.3 |
| 20260509185552 | 65 | 224 | 0.0 | 1.0 | 0.00 | 0.01 | 0.01 | 88 | 1015.3 |
| 20260509185043 | 65 | 224 | 0.0 | 1.0 | 0.00 | 0.01 | 0.01 | 87 | 1015.3 |
| 20260509184536 | 66 | 224 | 0.0 | 3.0 | 0.00 | 0.01 | 0.01 | 87 | 1015.2 |
| 20260509184031 | 66 | 224 | 0.0 | 3.0 | 0.00 | 0.01 | 0.01 | 87 | 1015.2 |
| 20260509183525 | 66 | 213 | 1.0 | 3.0 | 0.00 | 0.01 | 0.01 | 86 | 1015.2 |
| 20260509183506 | 66 | 213 | 1.0 | 3.0 | 0.00 | 0.01 | 0.01 | 85 | 1015.1 |
| 20260509182512 | 66 | 219 | 0.0 | 3.0 | 0.00 | 0.01 | 0.01 | 83 | 1015.1 |
| 20260509182007 | 66 | 208 | 0.0 | 2.0 | 0.00 | 0.01 | 0.01 | 81 | 1015.0 |
| 20260509181503 | 67 | 208 | 0.0 | 3.0 | 0.00 | 0.01 | 0.01 | 81 | 1014.9 |
| 20260509181441 | 67 | 208 | 0.0 | 3.0 | 0.00 | 0.01 | 0.01 | 80 | 1014.7 |
| 20260509180449 | 67 | 246 | 0.0 | 2.0 | 0.00 | 0.01 | 0.01 | 80 | 1014.7 |
| 20260509175942 | 67 | 245 | 0.0 | 1.0 | 0.00 | 0.01 | 0.01 | 79 | 1014.7 |
| 20260509175437 | 67 | 246 | 0.0 | 2.0 | 0.00 | 0.01 | 0.01 | 79 | 1014.5 |
| 20260509174930 | 67 | 245 | 1.0 | 3.0 | 0.00 | 0.01 | 0.01 | 79 | 1014.4 |
| 20260509174425 | 67 | 245 | 1.0 | 3.0 | 0.00 | 0.01 | 0.01 | 80 | 1014.3 |
| 20260509174144 | 67 | 98 | 0.0 | 1.0 | 0.00 | 0.01 | 0.01 | 80 | 1014.3 |
| 20260509173413 | 68 | 98 | 0.0 | 1.0 | 0.00 | 0.01 | 0.01 | 80 | 1014.2 |
| 20260509172906 | 68 | 98 | 0.0 | 1.0 | 0.00 | 0.01 | 0.01 | 80 | 1014.1 |
| 20260509172401 | 68 | 98 | 0.0 | 1.0 | 0.00 | 0.01 | 0.01 | 80 | 1014.1 |
| 20260509171855 | 68 | 98 | 0.0 | 1.0 | 0.00 | 0.01 | 0.01 | 80 | 1014.2 |
| 20260509171607 | 68 | 98 | 0.0 | 2.0 | 0.00 | 0.01 | 0.01 | 80 | 1014.1 |